This demonstration page uses our WeatherBlox Daily Observations layout. Learn more.

Left ArrowRight Arrow

Hourly Observations for August 24, 2017

Temp ( °F °C ) Dew Point ( °F °C ) Humidity (%) Winds ( mph kmh ) Pressure ( in mb ) Visibility ( mi km ) Precip ( " mm )
12:51 am 00:51 Clear 71 21.7 63 17.2 76 76 SE 9 15 29.92 1013 10 16.0934 0 0
1:51 am 01:51 Mostly Clear 70 21.1 63 17.2 79 79 ESE 6 9 29.94 1014 10 16.0934 0 0.0254
2:51 am 02:51 Mostly Clear 69 20.6 64 17.8 84 84 SSE 7 11 29.92 1013 10 16.0934 0 0
3:51 am 03:51 Clear 68 20 63 17.2 84 84 E 3 6 29.93 1013 10 16.0934 0 0
4:51 am 04:51 Clear 66 18.9 63 17.2 90 90 SSE 6 9 29.91 1013 10 16.0934 0 0
5:51 am 05:51 Sunny 65 18.3 63 17.2 93 93 E 5 7 29.89 1012 10 16.0934 0 0
6:51 am 06:51 Sunny 70 21.1 63 17.2 79 79 ESE 5 7 29.9 1013 10 16.0934 0 0
7:51 am 07:51 Sunny 73 22.8 63 17.2 71 71 SSE 5 7 29.91 1013 10 16.0934 0 0
8:51 am 08:51 Sunny 75 23.9 61 16.1 62 62 VRB 3 6 29.89 1012 10 16.0934 0 0
9:51 am 09:51 Sunny 79 26.1 60 15.6 52 52 VRB 3 6 29.88 1012 10 16.0934 0 0
10:51 am 10:51 Sunny 83 28.3 59 15 44 44 SSW 9 15 29.85 1011 10 16.0934 0 0
11:51 am 11:51 Sunny 84 28.9 56 13.3 38 38 Calm 29.83 1010 10 16.0934 0 0
12:51 pm 12:51 Sunny 88 31.1 56 13.3 34 34 SW 8 13 29.8 1009 10 16.0934 0 0
1:51 pm 13:51 Sunny 90 32.2 55 12.8 31 31 SSE 8 13 29.77 1008 10 16.0934 0 0
2:51 pm 14:51 Sunny 93 33.9 55 12.8 28 28 SSE 14 22 29.72 1007 10 16.0934 0 0
3:51 pm 15:51 Sunny 91 32.8 54 12.2 28 28 SW 8 13 29.7 1006 10 16.0934 0 0
4:51 pm 16:51 Sunny 92 33.3 53 11.7 27 27 undefined N/A 29.69 1005 10 16.0934 0 0
5:51 pm 17:51 Mostly Sunny 91 32.8 53 11.7 27 27 NW 6 9 29.69 1005 10 16.0934 0 0
6:51 pm 18:51 Sunny 87 30.6 53 11.7 31 31 W 5 7 29.69 1005 10 16.0934 0 0
7:51 pm 19:51 Clear 83 28.3 55 12.8 38 38 Calm 29.7 1006 10 16.0934 0 0
8:51 pm 20:51 Mostly Clear 80 26.7 58 14.4 47 47 NNE 6 9 29.73 1007 10 16.0934 0 0
9:51 pm 21:51 Mostly Clear 84 28.9 53 11.7 34 34 NNE 15 24 29.73 1007 10 16.0934 0 0
10:51 pm 22:51 Mostly Cloudy 83 28.3 52 11.1 34 34 NE 8 13 29.73 1007 10 16.0934 0 0
11:51 pm 23:51 Mostly Clear 80 26.7 52 11.1 38 38 ESE 9 15 29.73 1007 10 16.0934 0 0

Powered by AerisWeather